Flag for Canada Weather past 2 weeks in Norfolk, Ontario, Canada

Now
66 °F

Mild.


Feels Like: 66 °F
Forecast: N/A
Wind: 12 mph from North

Location: Delhi CS

Current Time: Jul 23, 2014 at 7:14:01 PM

Latest Report: Jul 23, 2014 at 6:00 PM


Visibility: N/A

Pressure: 29.96 "Hg

Humidity: 65%

Dew point: 54 °F

Location of NorfolkLocation

Historic Weather in Norfolk — Graph

°F

Norfolk temperature yesterday

Maximum temperature yesterday: 82 °F (at 7:00 PM)
Minimum temperature yesterday: 54 °F (at 6:00 AM)
Average temperature yesterday: 67 °F

Past Weeks' High & Low Weather Summary

 TemperatureHumidityPressure
High84 °F (Jul 13, 4:00 PM)100% (Jul 10, 6:00 AM)30.23 "Hg (Jul 10, 6:00 AM)
Low45 °F (Jul 17, 5:00 AM)33% (Jul 17, 2:00 PM)29.56 "Hg (Jul 8, 5:00 PM)
Average66 °F77%29.99 "Hg
* Reported Jul 8 5:00 PM — Jul 23 5:00 PM, Norfolk, Weather by CustomWeather, © 2014

Note: Actual official high and low records may vary slightly from our data, if they occured in-between our weather recording intervals... More about our weather records

Advertising

Norfolk weather history for previous 24 hours

 ConditionsComfort  
Time TempWeatherWind HumidityBarometerVisibility
5:00 PM
Jul 23
67 °FMild.10 mph65%29.96 "HgN/A
4:00 PM72 °FMild.13 mph58%29.94 "HgN/A
3:00 PM70 °FMild.13 mph62%29.95 "HgN/A
2:00 PM69 °FMild.10 mph68%29.94 "HgN/A
1:00 PM67 °FMild.8 mph75%29.93 "HgN/A
12:00 PM67 °FMild.8 mph76%29.92 "HgN/A
11:00 AM67 °FMild.8 mph79%29.92 "HgN/A
10:00 AM66 °FMild.10 mph83%29.90 "HgN/A
9:00 AM67 °FMild.8 mph90%29.89 "HgN/A
8:00 AM71 °FMild.7 mph95%29.85 "HgN/A
7:00 AM70 °FMild.7 mph90%29.86 "HgN/A
6:00 AM70 °FMild.5 mph90%29.86 "HgN/A
5:00 AM71 °FMild.7 mph93%29.87 "HgN/A
4:00 AM72 °FMild.5 mph92%29.86 "HgN/A
1:00 AM72 °FMild.3 mph86%29.91 "HgN/A
12:00 AM72 °FMild.2 mph87%29.92 "HgN/A
11:00 PM
Jul 22
72 °FMild.3 mph86%29.92 "HgN/A
10:00 PM73 °FMild.6 mph82%29.92 "HgN/A
9:00 PM74 °FMild.3 mph75%29.93 "HgN/A
8:00 PM79 °FWarm.5 mph63%29.94 "HgN/A
7:00 PM82 °FWarm.6 mph57%29.96 "HgN/A
Weather by CustomWeather, © 2014

See weather overviewHow to use our weather pages